Tracking 30009 objects as of 7-Dec-2024
HD Live streaming from Space Station
objects crossing your sky now

DIAMANT B-P4 DEB

Track DIAMANT B-P4 DEB now!
10-day predictions


NORAD ID: 7654
Int'l Code: 1975-010C
Perigee: 790.7 km
Apogee: 1,043.1 km
Inclination: 49.8 °
Period: 103.2 minutes
Semi major axis: 7287 km
RCS: 0.0394 m2 (small)
Launch date: February 6, 1975
Source: France (FR)
Launch site: FRENCH GUIANA (FRGUI)

Note: This is SATELLITE DEBRIS
Your satellite tracking list
Your tracking list is empty




NASA's NSSDC Master Catalog

Two Line Element Set (TLE):
1 07654U 75010C   24341.52825510  .00001009  00000-0  74956-3 0  9991
2 07654  49.8451 273.9990 0173184  16.0159 344.6122 13.95393796532074
Source of the keplerian elements: AFSPC